Regional Weather Roundup
Issued by NWS

Home | Current Version | Previous Version | Graphics & Text | Print | Product List | Glossary On
Versions: 1 2 3 4 5 6 7 8 9 10 11 12 13 14 15 16 17 18 19 20 21 22 23 24 25 26 27 28 29 30 31 32 33 34 35 36 37 38 39 40 41 42 43 44 45 46 47 48 49 50
000
ASUS43 KOAX 150910
RWRNE

WEATHER ROUNDUP FOR NEBRASKA
NATIONAL WEATHER SERVICE OMAHA NE
400 AM CDT MON SEP 15 2014

NOTES: SATELLITE DATA IS BEING USED TO AUGMENT CLOUD COVER ABOVE
       12000 FEET.
       "FAIR" INDICATES FEW OR NO CLOUDS BELOW 12,000 FEET WITH NO
       SIGNIFICANT WEATHER AND/OR OBSTRUCTIONS TO VISIBILITY.

  * THESE STATIONS DO NOT REPORT WEATHER SUCH AS RAIN...SNOW OR FOG.

NEZ001>004-019>022-054>056-151000-
NEBRASKA PANHANDLE

CITY           SKY/WX    TMP DP  RH WIND       PRES   REMARKS
SCOTTSBLUFF    CLEAR     42  40  92 W3        30.26R
ALLIANCE       CLEAR     40  37  89 N8        30.23S WCI  34
CHADRON        CLEAR     36  35  96 W3        30.27R
KIMBALL        CLOUDY    44  42  95 N9        30.23S
SIDNEY         CLOUDY    48  43  82 N17       30.22R
$$

NEZ057>060-069>072-079>082-151000-
SOUTHWEST NEBRASKA

CITY           SKY/WX    TMP DP  RH WIND       PRES   REMARKS
NORTH PLATTE   CLOUDY    52  47  83 N20G25    30.14R
IMPERIAL       CLOUDY    55  53  93 N13       30.13R
LEXINGTON      MOCLDY    55  53  94 N8        30.08R
MCCOOK         MOCLDY    56  53  90 N8        30.07R
OGALLALA       CLOUDY    52  47  83 N13       30.18R
$$

NEZ005>010-023>029-035>040-094-151000-
NORTH CENTRAL NEBRASKA

CITY           SKY/WX    TMP DP  RH WIND       PRES   REMARKS
VALENTINE      CLOUDY    50  39  66 N7        30.22R
AINSWORTH      CLOUDY    48  40  73 N7        30.21R
BROKEN BOW     PTCLDY    51  48  89 N17       30.12R
O`NEILL        CLOUDY    51  48  92 N15       30.17R
ORD            CLEAR     50  47  89 N12       30.11R
THEDFORD       CLOUDY    49  43  79 N8        30.20R
$$

NEZ041-046>049-061>064-073>077-083>087-151000-
SOUTH CENTRAL NEBRASKA

CITY           SKY/WX    TMP DP  RH WIND       PRES   REMARKS
GRAND ISLAND   PTCLDY    55  52  89 N9        30.05R
AURORA         PTCLDY    56  55  95 E3        30.02S
HASTINGS       PTCLDY    58  53  84 E7        30.02S
HEBRON         MOCLDY    58  55  89 CALM      30.00R
HOLDREGE       PTCLDY    55  52  91 CALM      30.03R
KEARNEY *      PTCLDY    55  54  94 NE3       30.04S
YORK           PTCLDY    57  57 100 E6        30.03S
$$

NEZ011>018-030>034-042>045-151000-
NORTHEAST NEBRASKA

CITY           SKY/WX    TMP DP  RH WIND       PRES   REMARKS
NORFOLK        MOCLDY    53  51  93 N9        30.09R
ALBION         MOCLDY    55  51  86 N12       30.09R
BLAIR          CLOUDY    61  58  88 SE3       30.03S
COLUMBUS *     MOCLDY    55  52  88 NE5       30.06R
FREMONT        CLOUDY    62  56  82 CALM      30.04R
TEKAMAH        MOCLDY    57  54  89 CALM      30.04F
WAYNE          MOCLDY    50  50  98 N6        30.11R
$$

NEZ050>053-065>068-078-088>093-151000-
SOUTHEAST NEBRASKA

CITY           SKY/WX    TMP DP  RH WIND       PRES   REMARKS
LINCOLN        CLOUDY    61  57  87 E3        30.03F
OMAHA EPPLEY   CLOUDY    62  58  86 SE7       30.03F
BEATRICE       MOCLDY    61  58  90 NE5       30.00F
FALLS CITY     CLOUDY    63  59  87 SE5       30.00F
NEBRASKA CITY  MOCLDY    61  55  79 N3        30.04R
PLATTSMOUTH    CLOUDY    59  56  91 NE6       30.04S
$$

NEZ044-045-051>053-067-151000-
OMAHA AREA

CITY           SKY/WX    TMP DP  RH WIND       PRES   REMARKS
OMAHA EPPLEY   CLOUDY    62  58  86 SE7       30.03F
BLAIR          CLOUDY    61  58  88 SE3       30.03S
FREMONT        CLOUDY    62  56  82 CALM      30.04R
PLATTSMOUTH    CLOUDY    59  56  91 NE6       30.04S
WAHOO          FAIR      59  56  88 SE6       30.02F
$$



USA.gov is the U.S. government's official web portal to all federal, state and local government web resources and services.